Theta_e
358 357 358 358 358 358 357 357 358 359 358 357 355 354 354 353 353 350 347 350 353 351 351 351 350 350 349 348 350 349 347 346 345 346 347 345 343 343 341 338 337 339 340 339 339 339 339 339 338 338 337 336 336 336 336 335 335 334 333 332 332 331 331 330 330 330 332 333 333 333 334 334 334 332 330 328 328 332 335 336 339 341 342 341 339
357 357 358 358 358 358 357 357 358 359 357 354 353 351 350 351 352 348 344 347 352 352 351 351 349 349 349 348 348 347 345 344 344 344 344 342 341 340 337 336 337 338 337 336 337 338 339 340 340 340 338 338 338 337 337 337 337 336 335 334 334 334 334 333 332 334 337 338 338 340 340 339 339 338 337 337 337 339 341 341 342 345 345 343 343
356 356 357 357 359 359 358 357 357 357 356 352 350 348 347 349 348 348 346 347 351 352 350 349 348 347 347 346 345 345 345 343 343 343 341 340 341 338 337 339 340 339 338 338 340 341 340 341 340 340 340 340 340 339 339 339 338 337 337 337 338 338 338 337 337 339 340 341 342 342 342 342 342 341 341 340 341 342 344 344 344 345 346 345 345
353 356 357 355 356 358 357 357 356 357 357 354 353 351 348 347 347 348 350 350 350 349 347 348 348 345 344 342 341 344 343 340 341 341 338 339 338 337 339 341 341 342 340 339 341 342 340 341 341 341 340 340 339 339 339 339 338 338 339 339 340 340 341 340 340 341 342 342 342 342 341 341 341 341 341 340 341 342 343 345 346 346 346 345 344
351 354 356 352 353 355 355 355 355 356 357 355 355 355 351 350 351 351 351 350 349 346 345 346 347 346 345 342 340 341 340 339 340 340 338 338 337 336 337 338 340 340 336 335 340 340 337 337 337 338 337 337 336 336 338 338 339 341 341 341 341 341 341 340 341 341 341 341 341 341 341 342 341 340 340 339 339 339 340 341 343 343 343 343 343
351 351 351 352 353 354 354 354 354 355 355 354 354 355 354 353 354 353 349 348 348 347 347 346 345 345 343 340 339 340 340 339 340 339 337 336 336 334 332 334 337 337 334 338 340 336 334 334 333 335 335 334 335 335 336 338 340 341 341 340 339 338 338 339 339 337 336 337 339 340 340 340 341 340 341 340 339 338 338 337 336 336 338 340 342
349 348 349 351 352 353 354 353 353 354 353 353 354 355 356 354 354 353 350 351 351 347 343 340 340 340 338 338 339 338 338 340 340 337 336 336 334 332 333 336 337 337 338 338 336 331 330 331 331 332 333 333 333 333 334 336 337 337 336 337 337 335 335 335 336 334 333 335 337 338 338 339 340 341 341 340 340 339 337 336 336 336 335 336 338
347 348 349 349 350 351 353 352 352 352 352 352 353 355 355 352 352 354 351 349 347 341 334 332 333 334 336 338 338 338 339 340 338 336 337 338 336 334 336 338 336 336 339 340 338 336 333 331 329 328 327 328 329 328 330 331 332 333 334 335 336 335 335 335 335 335 335 334 334 335 335 337 338 338 339 340 340 339 337 336 337 338 338 337 336
347 347 348 348 348 350 352 353 350 350 351 353 354 356 355 352 351 351 345 338 334 330 329 329 328 326 329 333 336 340 340 339 337 336 337 338 337 336 338 338 335 334 337 339 340 338 335 332 328 326 325 324 324 324 325 326 328 331 332 331 331 333 335 336 335 335 335 334 334 333 333 333 334 335 336 338 340 340 339 338 338 339 339 338 337
345 346 347 348 349 349 350 352 349 348 351 353 355 357 355 352 349 344 337 330 327 328 327 327 325 325 331 336 338 339 338 337 336 336 336 337 337 337 339 338 335 333 334 335 337 337 336 334 329 326 325 323 323 324 324 326 328 331 332 330 329 329 332 334 335 336 336 336 335 335 335 335 336 336 336 337 339 340 340 339 340 340 340 339 338
344 345 347 348 349 349 348 350 348 347 351 354 356 357 355 351 346 339 332 328 327 326 325 329 332 334 337 338 337 338 336 335 336 337 338 338 338 338 338 337 335 335 335 334 335 336 336 335 330 326 324 323 324 325 326 326 327 329 329 330 330 330 331 332 334 335 335 335 335 336 338 337 337 337 337 337 337 337 337 337 338 338 337 338 339
344 344 346 348 349 348 346 348 347 347 351 354 356 357 355 351 345 336 330 327 326 323 327 336 339 339 338 336 336 336 333 333 336 337 337 338 338 339 337 336 336 336 335 335 336 337 337 334 329 327 327 326 326 326 327 326 325 327 328 329 330 332 333 332 332 333 333 334 333 334 335 336 335 335 335 336 336 336 336 336 336 336 335 334 334
345 345 346 347 349 347 346 348 347 348 350 353 355 357 354 349 342 333 329 327 323 322 332 339 339 340 339 337 336 334 330 332 333 334 338 339 336 336 336 336 336 336 335 336 336 336 335 331 329 331 332 331 330 328 327 326 325 326 328 329 330 331 333 332 332 332 333 332 331 331 332 332 332 332 333 334 334 335 335 336 335 335 336 335 333
346 346 345 348 348 347 347 348 347 348 351 353 355 356 353 347 339 331 329 325 320 324 335 339 338 339 339 337 336 335 332 333 333 332 336 335 332 334 335 334 334 335 336 336 332 329 328 327 328 330 331 332 332 330 328 326 325 325 326 328 330 332 332 332 332 331 331 330 329 331 331 332 331 330 329 331 332 333 333 333 333 333 333 334 334
347 346 346 348 349 347 347 348 348 349 351 353 354 354 352 345 336 331 328 322 320 328 334 336 336 338 338 336 337 338 334 331 330 329 327 328 331 333 331 329 331 333 332 328 325 325 325 325 326 325 326 328 329 327 327 327 327 327 327 328 331 332 331 331 331 330 329 327 327 328 330 330 329 326 325 327 329 332 333 332 332 333 333 333 334
346 346 346 348 349 348 347 348 349 349 351 354 354 353 351 345 335 329 327 321 321 329 333 334 336 337 338 337 338 339 334 329 330 331 330 331 333 331 329 332 334 333 331 328 328 329 326 324 323 322 323 324 325 326 327 327 328 329 329 328 329 330 330 330 329 328 327 326 326 326 328 329 327 324 323 325 327 329 331 331 332 333 334 334 334
345 346 346 348 350 348 347 349 350 350 351 353 353 352 350 345 335 329 326 322 323 330 335 335 336 336 337 338 338 337 336 334 335 336 333 331 329 329 332 335 335 334 333 333 333 330 325 322 321 322 324 326 327 328 329 328 328 329 328 327 328 329 330 329 328 326 326 327 328 329 329 328 325 323 325 326 326 327 329 331 331 332 333 335 336
345 345 346 348 350 350 350 350 349 349 351 353 352 351 349 345 336 328 325 324 324 330 334 336 337 336 337 339 339 337 335 334 334 332 328 327 329 332 335 334 334 334 334 333 332 329 325 323 323 325 328 330 331 331 330 328 327 328 328 326 328 330 330 328 326 326 325 326 328 330 329 327 324 323 324 324 324 324 325 327 329 330 332 333 335
347 346 346 350 349 350 352 352 351 350 351 352 352 350 349 346 337 329 326 324 326 329 333 337 339 338 338 339 339 337 332 329 330 330 326 327 332 334 333 332 332 331 332 331 330 328 326 325 324 326 329 332 332 331 330 328 326 326 327 326 326 328 329 328 326 324 324 325 327 329 328 325 323 324 323 321 321 321 322 324 326 327 329 331 333
348 346 346 350 349 350 352 353 354 354 353 352 351 349 349 346 339 331 328 328 329 331 333 337 339 337 337 336 335 334 329 325 325 326 325 329 332 331 330 329 329 329 330 328 326 326 325 325 324 325 328 330 330 330 331 331 329 328 327 327 326 326 326 326 325 325 325 325 326 326 325 325 324 322 321 320 320 320 321 323 325 326 328 329 330
348 347 347 347 348 351 351 350 352 356 354 351 351 351 350 347 341 335 333 333 334 334 335 336 337 336 336 335 332 330 327 324 325 326 327 329 330 329 329 330 330 331 331 329 328 328 327 326 325 326 329 329 328 330 333 333 333 332 330 327 327 327 327 325 325 326 325 325 324 323 324 325 323 320 319 319 319 319 319 320 321 323 325 327 328
349 349 348 346 349 354 354 351 352 354 353 349 350 352 350 347 343 341 340 339 339 339 337 336 336 335 335 334 334 334 332 331 330 331 331 331 330 330 330 330 331 332 332 332 331 330 329 328 328 329 329 328 328 329 332 333 333 333 332 329 330 331 329 326 326 326 324 324 323 322 325 326 322 319 319 319 317 316 316 317 318 320 323 325 327
349 349 350 349 350 354 355 353 352 352 350 348 347 349 349 345 343 343 344 343 342 341 340 338 337 336 333 332 334 337 337 335 333 334 333 333 332 331 330 329 330 331 331 331 331 331 331 330 330 330 331 331 330 329 330 331 331 332 331 330 330 331 330 328 328 328 325 323 322 322 325 325 321 318 319 317 315 316 317 317 318 319 321 323 325
349 348 350 350 349 351 352 352 352 352 351 349 344 345 347 344 341 342 344 343 342 342 342 341 338 337 334 331 332 335 336 336 335 335 334 334 332 330 330 330 330 330 330 329 330 331 330 329 330 330 330 330 331 330 329 329 328 329 329 329 328 328 329 329 329 329 326 324 323 322 324 325 321 318 318 316 315 316 318 318 318 319 321 322 323
347 347 349 350 349 350 351 351 352 351 349 347 343 343 346 344 342 343 343 343 342 342 344 341 337 337 336 334 334 336 337 336 335 335 334 334 332 331 330 329 329 330 330 330 331 330 329 329 329 329 329 329 330 330 330 329 328 327 327 326 324 324 325 328 330 329 327 326 326 324 324 325 321 319 318 315 315 317 318 318 318 319 320 321 322
349 350 351 352 353 351 351 353 352 351 349 346 344 343 345 343 341 343 343 342 341 339 341 340 338 339 339 338 337 337 338 337 336 335 334 333 332 330 330 330 331 331 331 330 329 329 329 329 329 329 329 329 329 329 329 328 328 328 326 324 322 322 322 325 329 331 329 327 327 327 325 324 322 320 317 315 315 317 318 318 318 318 318 319 320
352 354 352 354 354 353 354 352 352 352 349 346 344 344 345 343 343 344 343 341 339 337 336 336 338 339 339 338 338 338 338 337 336 336 334 334 333 332 331 329 328 328 327 327 327 329 330 330 329 329 329 329 329 329 329 329 328 329 327 325 325 325 324 326 328 330 330 328 327 327 326 325 324 320 317 315 316 316 317 317 318 318 317 317 318
355 356 353 353 354 354 354 352 353 352 349 346 347 346 344 343 343 343 341 340 339 338 336 336 336 337 337 337 337 338 338 337 336 335 334 332 332 331 329 326 325 326 326 328 330 330 330 329 328 328 328 328 329 329 330 330 329 329 329 328 327 327 325 325 326 328 328 327 327 326 326 326 324 321 318 317 317 317 317 317 318 318 317 316 317
356 358 355 353 353 353 352 351 350 350 347 347 348 346 345 345 343 341 340 340 339 336 337 336 334 334 333 333 334 336 337 336 335 334 332 331 330 331 331 329 329 329 329 330 330 330 329 330 329 328 328 329 329 330 330 331 331 330 330 329 328 324 322 322 322 323 323 324 326 326 326 326 325 322 320 320 319 319 319 319 319 318 317 316 317
351 355 354 353 352 352 352 350 349 347 346 348 348 348 347 344 342 340 339 338 336 335 337 336 331 329 329 328 330 333 335 336 335 333 332 330 329 331 333 333 333 332 330 329 329 329 330 330 329 329 328 329 329 330 329 330 331 330 329 328 325 322 321 321 321 321 322 325 327 327 327 326 326 323 320 320 320 320 320 320 319 318 317 317 317
345 350 350 351 351 350 351 352 350 348 348 349 349 348 346 343 341 340 338 335 335 336 338 336 331 329 330 329 330 333 335 335 333 331 330 328 327 331 333 334 334 333 332 331 330 329 329 329 328 328 328 329 329 328 327 328 328 328 328 327 325 324 325 324 322 322 323 325 326 327 327 327 326 324 321 319 319 320 321 320 319 318 317 316 318
340 346 349 352 352 350 350 351 351 349 348 349 349 348 345 343 342 339 337 336 336 338 339 336 331 328 331 332 334 335 336 335 334 331 329 328 329 331 333 334 335 334 333 332 330 329 328 328 328 328 328 329 328 327 326 325 326 326 327 327 326 326 326 325 323 323 323 324 326 327 327 327 326 325 323 320 319 319 320 319 318 317 317 316 318
340 343 348 354 356 353 352 353 351 350 350 351 350 348 344 344 342 338 336 337 338 339 340 337 331 326 329 332 334 336 336 335 334 332 330 331 332 333 334 335 335 335 334 332 329 328 328 328 328 328 328 327 327 325 324 324 324 325 325 326 325 325 326 326 325 324 324 325 326 327 326 326 326 326 324 321 319 319 319 318 317 317 317 317 318
340 340 344 351 355 355 354 355 353 352 353 352 351 348 345 344 341 337 337 338 339 338 339 338 332 327 329 333 334 335 335 334 333 332 332 332 332 333 334 334 335 335 333 331 329 328 328 328 328 327 327 326 325 324 325 325 325 326 325 325 324 325 326 325 324 324 324 325 325 326 325 324 324 324 322 321 320 319 319 319 319 318 317 317 318
339 339 338 346 355 356 356 356 356 355 353 351 350 350 347 342 339 339 338 338 337 337 338 340 336 333 335 337 335 335 334 333 333 332 332 332 333 334 334 334 335 335 333 330 328 328 328 328 327 326 326 326 326 325 326 325 324 325 325 324 324 324 325 325 323 323 323 323 324 325 323 321 321 321 320 320 320 320 320 320 321 320 318 317 317
340 341 339 343 353 357 357 358 359 356 353 351 351 349 343 338 339 341 338 336 336 337 339 340 339 338 339 339 337 334 333 333 332 332 332 333 334 335 335 334 334 335 334 330 328 328 328 328 327 326 326 327 327 326 325 324 323 324 324 323 323 323 323 324 323 323 322 322 323 324 323 322 321 320 319 320 321 321 320 321 321 320 318 317 317
341 344 345 345 352 357 359 358 359 356 353 352 349 343 340 339 340 340 336 336 337 339 340 340 339 339 340 339 336 335 333 333 333 333 333 334 334 334 334 333 334 334 333 330 329 329 328 328 327 326 326 328 328 328 327 326 325 325 324 323 323 323 323 324 324 323 322 322 323 324 324 323 322 320 318 319 321 321 321 321 321 319 317 317 317
342 346 349 350 354 359 359 359 359 356 353 351 345 341 341 340 338 338 337 338 339 338 337 337 337 337 338 337 336 334 333 333 332 333 333 334 333 332 332 332 333 332 332 330 329 328 328 328 328 326 327 328 328 328 327 326 327 326 324 323 323 323 323 323 323 323 321 321 322 324 323 323 322 321 319 319 320 320 321 321 321 318 317 317 317
345 347 351 354 357 359 358 359 358 354 352 347 341 340 341 338 336 337 339 340 340 337 336 334 334 334 335 336 335 333 332 332 332 333 334 333 332 331 332 332 330 330 331 331 330 329 328 328 327 326 327 328 327 327 327 327 327 327 324 322 322 323 323 323 323 323 321 321 322 323 323 323 322 321 319 318 319 320 321 321 320 318 317 317 317
344 347 351 355 357 358 358 358 356 352 349 344 340 340 341 337 335 337 338 339 339 338 337 336 335 334 335 336 335 332 331 331 331 332 334 333 331 330 331 331 329 330 331 330 329 327 326 326 326 326 327 327 328 327 327 327 327 325 322 321 321 322 322 323 323 323 322 322 322 322 323 323 322 320 318 317 318 320 320 321 320 318 317 317 317
338 342 350 355 356 358 358 356 353 349 345 342 341 340 339 336 336 337 336 336 337 337 337 336 335 335 334 335 335 334 332 331 331 333 334 333 331 330 330 329 329 331 331 328 327 326 326 327 327 327 327 327 327 327 327 326 325 323 321 321 321 321 321 322 322 322 322 323 323 322 322 322 321 318 316 317 319 320 320 321 321 320 318 318 318
335 340 349 356 357 357 355 353 349 346 343 341 340 338 337 337 336 335 334 334 334 334 334 333 333 333 332 334 334 333 332 331 332 334 333 331 329 330 331 331 330 330 329 327 326 327 328 330 329 326 325 325 325 325 325 325 323 322 321 321 321 321 321 321 321 321 322 323 323 322 322 322 321 317 316 318 320 320 320 321 322 320 318 319 320
342 347 353 357 356 352 349 348 345 344 342 340 338 337 336 336 335 336 337 336 335 334 333 332 331 331 331 332 334 333 332 332 333 334 333 330 329 330 332 332 330 329 327 326 326 327 329 330 329 327 325 323 322 322 324 324 324 323 321 320 320 321 321 320 321 320 321 322 322 322 322 322 320 317 318 321 321 320 320 322 322 321 319 321 322
348 352 354 355 352 347 343 342 341 341 340 337 336 336 335 334 336 338 337 337 336 336 335 334 333 332 332 331 332 332 333 333 334 334 332 330 330 330 330 330 330 328 328 327 328 329 329 329 328 327 326 324 322 322 322 323 324 323 322 321 321 321 321 321 320 320 321 322 322 322 322 320 319 320 322 322 322 321 321 322 322 322 320 321 322
346 350 349 348 347 345 340 340 342 340 338 337 336 335 334 335 339 340 339 338 337 335 334 333 331 332 333 333 333 334 334 334 334 332 330 329 328 328 328 328 329 329 327 327 327 328 328 328 328 326 324 322 322 322 321 320 321 322 322 322 321 321 320 320 320 320 322 323 323 322 321 320 320 322 323 323 323 322 321 321 322 321 321 321 322
342 346 344 341 342 342 339 340 343 342 340 340 338 335 335 336 338 339 338 336 334 332 331 329 329 332 334 335 335 335 334 333 331 330 329 329 328 327 327 327 328 327 326 327 328 328 328 329 327 325 323 321 321 322 321 321 321 323 323 321 320 319 319 319 320 321 322 322 322 322 322 321 322 323 323 322 322 322 321 320 320 321 321 322 322
340 341 339 338 340 339 337 338 341 342 342 341 337 336 335 334 333 333 332 332 332 331 330 329 329 332 334 336 335 334 333 331 329 328 329 328 328 327 327 327 327 326 325 326 326 327 328 328 326 324 322 321 321 321 322 322 323 323 321 319 318 318 318 319 320 321 321 322 322 322 322 322 323 323 321 321 322 321 320 320 321 321 322 322 323
340 338 336 337 339 339 337 338 339 339 339 337 335 335 333 330 329 330 331 333 335 335 336 336 335 334 334 335 334 333 332 329 327 326 327 327 327 328 328 327 326 325 324 323 321 323 324 324 324 322 322 322 322 322 322 323 323 322 319 318 317 318 318 319 320 321 321 322 322 323 323 323 322 321 320 321 321 321 320 321 321 321 322 322 323
342 340 338 338 338 336 336 338 338 339 338 335 333 333 330 328 329 331 331 333 336 337 338 338 336 335 335 335 334 332 330 329 328 327 327 328 328 327 327 326 324 324 323 322 322 322 322 321 322 321 320 321 322 322 322 323 322 320 318 316 317 317 318 319 320 321 322 322 323 323 323 322 322 321 320 321 320 320 320 321 321 321 322 322 323
339 338 337 339 338 337 338 339 338 337 334 331 329 328 326 327 330 332 333 335 337 337 336 334 334 334 333 334 332 331 329 329 329 328 328 328 328 327 326 325 325 325 324 324 323 322 320 320 321 321 320 321 321 322 323 322 320 318 316 315 316 318 319 319 320 322 322 322 322 322 322 321 321 320 320 320 320 320 320 320 320 321 321 322 322
337 334 334 336 337 336 336 334 332 331 329 328 329 330 330 329 331 331 331 331 334 335 335 333 332 331 330 330 330 330 330 329 328 327 327 327 326 326 326 326 327 326 326 324 322 320 319 320 321 321 321 322 322 322 323 321 319 316 313 314 316 317 318 319 320 321 322 321 321 320 320 320 320 319 319 319 319 320 319 319 320 320 320 321 322
Wind_Speed
17 17 16 15 15 15 14 14 13 13 13 13 12 11 11 10 10 10 11 11 9 7 7 7 6 6 7 7 8 9 7 6 8 10 11 10 10 11 12 12 13 12 11 12 13 14 14 15 15 16 16 16 16 16 16 16 17 18 18 17 18 20 22 22 23 23 23 23 21 19 17 15 16 17 21 24 26 27 26 27 27 27 29 31 32
19 18 18 17 16 16 15 15 15 14 14 13 12 12 12 10 10 10 9 10 9 8 8 8 7 7 7 6 5 6 7 5 5 6 9 10 10 11 12 13 13 12 12 13 14 14 14 15 16 16 17 16 17 17 18 17 16 15 16 18 18 19 20 20 20 20 20 19 18 19 19 17 15 14 14 16 18 20 21 24 26 26 28 31 32
20 20 20 18 18 17 16 15 15 14 13 13 12 12 12 10 10 9 8 8 8 7 7 6 6 5 4 3 2 3 4 4 4 4 6 9 9 12 13 11 11 11 11 13 13 14 15 15 16 17 17 16 17 18 19 18 18 17 17 18 18 17 18 17 16 16 17 17 16 17 18 17 16 13 13 14 14 16 18 21 24 25 27 30 32
22 21 21 20 19 19 17 16 15 15 14 13 13 12 11 11 9 9 8 8 7 6 5 4 4 2 2 2 1 2 5 4 4 4 4 6 7 10 9 8 9 10 10 11 10 11 13 13 14 14 15 15 16 17 18 19 19 18 18 18 18 18 17 16 16 16 17 17 15 15 16 15 15 12 12 14 12 13 16 17 20 24 27 31 33
24 22 22 21 21 19 18 17 17 16 16 15 15 14 12 11 10 9 9 8 6 5 4 4 2 1 1 2 2 5 7 6 7 6 5 6 6 6 8 9 10 12 13 10 9 11 12 12 13 13 14 14 14 15 17 18 18 18 18 17 17 18 19 19 17 16 16 17 17 17 16 15 15 14 15 16 15 14 16 18 20 24 26 27 30
23 23 23 22 22 20 18 19 18 17 17 16 15 15 13 12 12 11 8 6 5 5 5 4 4 4 4 3 4 6 6 6 8 8 7 8 8 9 11 10 10 12 11 8 9 11 11 12 12 12 13 13 13 14 15 17 16 15 16 16 16 16 18 18 17 16 16 16 16 17 17 18 20 21 21 21 20 20 21 22 23 24 23 23 25
23 23 23 22 23 22 21 21 20 19 18 16 15 15 14 14 14 12 9 7 7 7 6 6 6 6 4 3 4 5 5 6 7 7 8 8 9 8 8 7 8 10 8 7 10 11 11 11 11 11 12 12 12 13 14 16 15 14 14 15 16 15 16 17 17 17 16 15 15 15 17 19 21 21 22 22 24 26 25 25 26 25 24 24 24
24 24 24 24 24 24 24 23 21 20 18 18 17 16 16 15 15 14 13 12 10 7 6 6 6 5 4 4 5 4 4 5 5 5 6 7 9 8 7 8 9 8 6 7 10 10 11 11 12 11 11 12 13 13 14 15 15 15 14 14 14 14 15 16 17 16 16 16 16 16 18 19 19 20 22 21 22 27 29 27 26 25 24 25 26
25 24 24 26 26 25 25 25 23 20 19 20 19 18 17 16 16 15 13 11 9 8 7 6 6 5 4 3 4 4 4 5 5 5 8 10 10 8 7 9 10 8 6 6 9 11 12 12 11 12 12 13 13 13 13 13 14 14 14 15 14 14 14 15 16 16 16 17 18 19 19 20 20 21 21 20 21 24 27 26 24 23 23 23 25
26 24 25 27 27 26 25 24 23 22 21 21 19 19 18 17 17 15 13 10 8 8 7 6 5 3 3 2 3 4 5 6 6 7 8 9 8 6 6 9 9 8 7 7 8 11 12 12 12 12 12 12 12 13 13 13 13 12 13 14 14 14 14 14 16 16 17 17 17 18 19 20 20 20 20 20 21 22 24 25 23 22 24 25 23
28 25 25 27 28 27 26 25 24 24 23 21 20 19 19 19 18 15 12 10 8 7 5 4 3 2 4 4 4 5 6 6 6 6 6 6 7 6 7 9 7 7 8 8 7 8 10 14 15 14 12 11 10 11 11 12 12 12 12 12 12 12 12 13 14 15 15 16 15 16 17 18 19 20 21 22 23 25 26 28 27 26 26 27 25
28 27 27 28 30 29 27 27 26 26 26 23 22 21 20 20 19 15 13 10 8 7 5 4 5 5 6 5 5 6 5 5 5 5 5 6 6 6 7 7 6 7 7 7 7 8 11 14 15 14 12 11 11 10 10 11 12 13 12 11 11 11 11 12 13 13 14 14 14 14 15 17 18 19 21 23 24 25 26 29 31 30 30 32 30
28 29 28 29 32 31 29 29 29 28 28 26 24 23 22 22 19 16 13 10 8 6 6 7 8 8 7 6 6 6 5 4 5 4 4 7 7 6 6 6 6 7 6 7 8 9 11 13 13 12 12 12 12 12 12 13 12 12 12 12 11 11 11 12 12 12 13 14 15 15 16 17 18 19 20 21 23 24 25 29 32 31 31 34 33
30 29 28 30 33 33 31 31 31 31 29 27 25 24 24 22 20 17 14 11 9 7 7 9 9 9 9 7 7 7 4 3 4 3 5 8 8 6 6 7 7 7 7 8 10 10 11 12 12 11 12 12 13 14 14 14 14 12 11 11 11 11 12 12 12 12 13 14 15 16 17 17 18 19 20 21 22 23 24 28 31 33 34 36 35
32 31 29 31 33 34 33 32 32 31 29 27 26 26 25 23 21 19 15 12 10 9 9 9 10 10 9 8 7 6 5 4 4 4 4 5 5 6 6 6 6 7 8 9 9 10 11 12 12 12 12 13 14 15 15 14 14 13 12 10 10 12 13 12 12 12 14 15 16 16 16 17 18 21 23 22 21 22 24 26 29 32 33 35 36
30 32 30 31 34 34 33 33 33 32 30 28 28 28 26 25 22 19 16 13 11 10 10 9 10 10 10 9 7 7 8 5 2 3 4 3 4 6 6 5 6 8 9 9 9 9 11 11 12 12 12 13 14 14 14 14 14 14 14 12 11 12 14 13 12 13 15 17 17 17 17 16 20 24 25 23 22 22 24 26 28 30 32 35 36
29 31 32 32 34 34 34 36 36 35 33 30 29 29 28 26 23 20 17 14 12 12 11 10 11 11 10 10 9 8 8 5 2 3 5 6 6 5 4 5 7 8 9 9 9 10 11 11 12 12 13 14 14 14 15 15 15 15 15 14 12 12 11 12 13 14 16 17 17 17 17 18 22 25 25 24 24 24 25 26 28 30 31 33 34
25 30 32 32 36 36 35 37 39 38 35 32 31 30 30 28 24 21 19 15 13 13 12 11 12 11 10 11 11 9 8 7 6 6 7 7 5 3 4 6 8 9 9 10 11 12 12 12 12 13 14 14 14 15 17 17 16 15 15 14 13 12 11 11 12 14 16 17 17 16 16 19 23 24 24 25 26 27 28 29 29 30 32 33 33
22 27 29 31 37 38 36 35 37 38 36 33 32 32 31 29 25 21 19 16 15 14 12 12 13 11 10 11 12 11 9 7 7 7 7 5 3 3 5 7 9 9 10 11 13 14 14 13 13 13 13 13 14 15 16 17 16 16 16 15 13 13 13 12 13 15 16 17 17 17 18 20 22 21 23 26 28 29 29 30 30 30 31 33 33
22 28 33 32 34 38 39 37 35 36 36 33 33 33 31 30 27 23 20 18 17 15 13 13 14 12 12 12 12 12 10 7 7 7 6 5 4 3 5 7 8 9 11 12 13 14 15 14 14 14 14 14 15 16 16 16 16 16 16 16 15 14 14 14 15 16 16 16 17 18 20 20 19 20 23 26 27 28 29 30 31 31 30 31 32
26 31 39 37 32 34 39 40 36 35 35 33 32 31 30 29 27 25 23 21 19 16 14 15 15 13 13 12 11 11 9 6 5 5 5 5 3 3 7 8 7 9 12 13 14 16 16 16 16 16 16 16 17 16 16 15 16 16 15 15 16 15 15 16 17 17 17 18 19 19 19 18 18 21 23 25 27 29 31 32 31 32 32 31 31
29 31 37 39 34 32 35 38 38 39 37 34 33 31 29 28 26 25 24 22 20 18 17 16 15 14 14 12 11 11 9 7 6 6 7 6 4 6 9 9 8 9 11 13 15 17 17 18 18 18 17 17 16 17 17 16 15 16 15 15 15 15 16 17 18 18 18 19 20 20 18 17 19 22 22 24 29 31 32 33 32 31 31 30 30
26 25 31 36 35 34 36 37 39 41 38 36 35 33 31 28 25 24 24 22 20 19 19 17 16 15 13 12 11 12 12 10 8 8 8 7 6 8 10 10 9 9 11 12 14 16 17 19 20 20 19 19 19 19 18 17 17 18 17 16 16 15 17 18 18 18 19 20 21 21 18 17 19 21 22 25 29 31 31 33 33 31 30 29 29
19 20 26 34 37 36 37 38 40 40 39 38 37 36 34 30 26 24 24 22 20 20 20 18 16 15 13 11 11 12 13 11 10 9 8 7 5 7 8 8 9 11 12 12 13 14 16 18 19 19 19 20 21 22 21 19 19 19 18 18 19 19 18 18 18 19 20 20 20 20 18 17 19 21 22 25 28 29 30 32 34 32 30 30 31
18 22 26 31 36 38 38 39 41 42 42 40 37 36 36 32 28 26 24 22 20 21 22 19 15 14 13 11 11 12 13 11 10 9 8 8 8 9 9 7 9 12 12 12 13 15 16 17 18 19 20 20 20 22 24 22 19 18 18 19 21 21 20 19 18 19 21 21 20 19 18 18 20 21 22 25 27 28 29 32 33 32 31 32 34
18 23 28 29 32 36 39 40 42 42 42 40 39 39 36 31 30 29 26 24 23 23 21 18 15 14 14 13 12 12 13 12 11 10 9 9 10 9 8 8 10 13 14 15 15 15 15 16 17 18 20 20 18 20 23 23 20 18 18 19 20 20 20 19 19 19 20 20 20 19 19 19 20 21 21 24 26 28 30 31 32 33 33 34 36
16 20 27 30 30 33 38 40 41 41 39 38 39 40 37 32 32 30 26 27 28 25 21 18 16 15 15 14 13 13 13 13 12 11 10 10 10 9 11 13 15 15 16 16 14 13 14 16 17 18 19 20 18 18 21 23 21 18 18 17 17 18 19 19 19 19 20 21 21 20 20 20 20 20 20 22 25 28 30 32 32 33 35 37 38
19 22 25 29 31 35 38 40 41 41 39 36 36 38 36 33 30 27 27 31 30 25 20 18 17 16 15 14 13 14 14 13 13 12 12 11 11 12 14 15 14 13 13 12 12 13 15 17 18 18 17 18 17 17 19 21 20 17 16 17 17 18 19 20 20 21 22 23 23 22 21 22 21 20 20 22 25 29 31 33 34 35 37 39 41
19 24 28 29 30 33 36 39 40 40 39 37 36 36 34 33 32 29 30 33 30 22 19 18 17 17 17 16 15 15 15 15 14 13 13 12 11 12 14 14 13 12 12 12 13 15 16 17 17 17 16 16 17 17 18 19 19 17 17 17 17 18 19 20 22 22 23 24 24 23 22 22 22 21 22 24 26 28 30 32 34 36 38 41 43
19 23 26 30 32 32 32 34 37 38 38 38 38 37 34 34 37 35 32 31 23 15 16 19 17 16 16 15 16 17 17 16 15 14 13 12 11 12 13 14 14 14 13 12 13 14 15 15 16 17 16 16 17 17 17 17 16 16 17 17 17 17 18 20 21 22 23 23 23 23 23 23 24 23 25 27 28 28 29 31 33 35 39 42 44
21 25 25 27 31 33 32 32 35 39 39 39 39 37 36 38 41 39 34 27 16 13 18 21 18 15 15 15 16 18 18 17 15 14 12 12 11 12 13 14 16 16 14 13 13 13 14 16 17 17 16 15 17 20 19 19 17 16 16 16 16 17 19 20 22 22 22 22 23 25 25 24 25 26 27 27 28 29 29 30 33 35 38 41 42
16 23 27 28 28 31 33 33 35 39 41 41 40 39 39 43 43 40 33 22 14 17 23 23 18 16 17 18 18 19 18 17 15 14 12 11 11 12 13 15 16 16 15 13 13 14 14 16 17 18 17 17 20 22 21 21 20 18 17 16 17 19 20 21 22 23 23 22 23 25 25 24 26 27 28 28 29 29 28 29 33 35 38 41 42
13 15 22 28 30 31 33 33 33 37 38 38 41 43 44 45 43 41 34 22 18 22 25 22 19 18 19 20 21 20 19 17 16 15 13 12 12 13 14 15 16 16 16 15 15 15 15 15 17 18 19 20 22 23 22 21 21 20 19 18 20 21 20 21 23 23 22 22 23 24 25 26 27 27 28 28 27 27 28 28 31 34 38 41 43
17 17 18 24 30 31 32 34 36 37 36 34 36 41 45 45 45 42 33 24 24 26 25 23 20 19 21 21 21 21 19 17 16 15 13 13 13 14 14 16 16 16 16 16 16 16 16 16 17 19 21 22 22 21 21 21 22 22 22 21 21 21 21 21 22 22 21 21 24 26 27 27 27 26 25 25 25 26 28 29 30 32 37 41 43
17 18 19 20 27 31 34 38 40 39 38 37 37 41 45 41 37 33 26 24 27 27 25 25 24 22 22 23 21 20 20 17 15 14 14 14 14 15 15 16 17 18 18 17 17 17 17 17 18 20 22 23 21 19 19 21 23 23 22 21 21 22 22 21 21 21 21 21 24 27 26 25 24 23 22 21 22 25 28 31 31 32 37 42 44
14 16 17 18 23 30 34 37 39 37 38 40 40 40 39 31 23 20 22 25 28 27 26 28 26 24 23 23 21 20 19 17 15 15 15 14 14 15 16 17 19 20 20 18 17 18 18 18 19 20 21 22 22 20 20 22 22 22 21 21 22 23 23 22 21 21 20 22 24 24 23 21 21 21 20 19 22 25 28 31 32 33 37 43 45
11 12 14 16 18 24 29 33 36 36 35 38 38 37 35 28 19 19 24 27 28 29 29 29 27 24 22 21 20 18 17 17 16 16 15 14 14 16 17 18 19 19 19 19 18 18 19 20 22 21 20 22 22 20 19 21 21 21 21 21 21 20 20 20 21 21 20 22 23 22 21 21 21 20 19 20 23 26 28 31 31 32 37 43 46
8 9 11 13 15 19 23 26 32 35 33 31 32 32 28 22 19 22 27 31 31 31 30 28 26 23 20 19 18 17 16 16 16 16 15 14 14 15 16 17 17 17 18 19 19 19 20 22 24 22 20 21 21 20 19 19 20 20 21 20 19 19 20 21 21 21 20 21 22 22 22 22 22 21 21 22 24 27 29 29 29 30 37 43 47
5 7 10 12 15 17 19 23 30 34 29 24 26 27 20 14 18 25 28 30 31 29 26 23 21 19 18 18 18 16 16 17 17 17 16 15 14 13 13 15 17 18 18 20 21 22 22 24 24 23 21 22 22 19 18 17 18 21 22 20 20 20 21 22 22 22 21 21 22 22 22 22 22 21 21 23 25 27 28 27 26 28 35 41 46
4 7 9 12 15 17 19 24 29 31 28 25 27 24 16 13 19 26 27 27 28 26 23 19 17 16 16 17 17 17 17 18 18 17 17 16 15 15 16 17 16 16 18 19 21 24 27 27 26 24 23 22 20 19 20 19 20 22 22 19 19 19 20 22 23 23 23 23 23 23 23 23 22 21 22 25 26 26 26 26 23 26 33 38 43
6 9 11 12 14 17 20 23 24 24 25 27 25 19 16 19 24 26 24 22 21 20 18 17 16 15 15 16 17 17 18 18 18 18 17 17 17 19 19 17 16 17 18 20 22 25 27 26 25 25 23 21 18 17 20 21 22 22 20 17 16 17 18 20 22 22 23 23 23 24 24 23 21 22 24 26 25 24 25 25 22 23 29 33 38
10 13 13 13 13 16 18 21 21 21 23 22 16 15 18 23 25 23 20 18 15 14 13 13 15 15 15 17 18 18 18 18 18 17 18 17 16 16 16 16 17 18 19 20 22 24 25 24 24 24 23 22 21 17 17 19 20 20 17 15 15 15 16 17 20 21 22 22 22 22 22 22 22 24 24 25 24 24 24 24 22 22 25 29 33
7 10 11 11 12 14 15 16 17 21 23 19 16 18 21 20 18 16 15 14 13 13 12 13 13 13 16 19 20 20 20 20 19 20 20 17 14 14 14 15 17 20 21 21 22 23 23 24 24 21 18 19 20 16 14 15 17 17 16 15 15 15 15 17 19 21 21 21 20 20 21 22 23 23 23 23 23 23 23 24 23 21 23 27 31
4 8 9 10 13 17 15 11 11 15 16 15 17 19 17 14 13 13 12 12 12 12 13 13 12 13 17 19 20 22 23 22 20 21 19 15 13 14 14 14 17 20 21 22 22 22 22 22 22 19 17 19 19 16 14 14 15 16 16 15 15 16 17 18 19 20 19 19 18 19 21 22 20 20 20 21 22 23 24 24 24 23 24 28 30
5 9 10 9 13 19 18 11 10 13 14 14 18 19 15 12 12 12 12 12 12 12 14 15 16 17 18 18 20 22 21 20 20 20 17 14 12 13 13 14 17 19 20 21 22 21 20 20 20 19 20 20 19 16 14 14 14 15 16 16 18 18 17 17 18 18 17 16 16 18 20 19 17 16 18 20 21 22 23 24 24 23 23 25 25
9 10 14 14 15 19 18 13 12 13 10 9 11 11 8 6 7 10 11 14 16 17 17 17 20 22 21 21 23 21 18 18 18 17 14 12 10 11 13 14 15 16 17 18 18 18 17 18 19 19 19 18 16 13 13 13 14 15 17 18 18 17 16 16 16 16 16 16 16 17 18 16 14 14 17 19 21 20 20 22 22 21 20 21 20
11 13 14 14 15 18 17 15 14 12 8 5 3 1 4 6 9 12 14 15 16 17 17 16 19 24 23 20 18 16 15 15 11 7 8 8 10 12 13 12 12 14 15 16 16 17 17 17 18 19 17 14 12 12 13 15 16 17 17 16 15 14 14 14 14 14 15 15 15 16 15 12 12 14 17 20 19 17 17 18 19 19 19 20 19
10 14 14 15 19 21 19 15 13 12 10 7 6 8 9 9 11 11 11 11 11 10 9 8 13 17 17 14 11 10 12 11 6 6 9 10 9 10 11 12 15 17 18 18 18 19 19 17 18 18 16 13 12 13 15 17 18 17 16 13 13 13 13 13 13 13 14 14 13 12 10 10 13 17 19 19 17 15 15 16 17 18 19 20 19
12 14 15 18 21 20 16 12 11 10 10 9 7 7 5 5 7 6 4 5 6 5 5 7 8 9 10 11 11 9 8 8 8 9 11 11 9 10 13 16 18 19 19 19 20 20 18 16 16 17 16 14 13 15 16 17 17 16 14 13 13 13 13 12 12 11 12 12 10 8 11 15 18 18 17 16 15 14 15 15 16 18 19 20 21
12 13 13 15 16 15 14 13 9 6 6 5 5 6 4 2 3 3 1 2 4 5 6 7 8 9 11 11 10 8 7 8 8 8 9 12 13 14 15 17 17 18 18 18 19 18 15 13 13 14 14 13 14 15 15 16 16 15 14 14 14 13 13 13 11 10 10 11 11 11 14 16 15 13 13 13 13 14 15 16 17 18 20 21 21
11 11 12 15 15 12 10 8 6 5 5 5 3 2 2 2 2 4 3 3 5 7 8 8 7 9 10 10 9 9 9 9 8 8 10 13 15 15 14 15 15 16 16 16 16 14 11 9 11 12 12 12 13 13 13 14 14 13 13 13 13 13 13 12 11 10 10 11 11 11 11 11 10 9 10 12 13 14 16 17 17 19 21 22 23
Wind_Direction
175 177 182 179 173 173 175 173 175 176 179 186 182 179 178 172 175 183 180 179 194 195 187 204 210 219 239 251 266 279 289 298 290 280 280 295 304 299 300 305 304 301 298 300 301 300 302 303 302 306 310 310 307 305 303 303 304 303 304 302 299 298 298 298 302 305 305 306 308 310 306 294 285 277 271 267 265 265 264 261 261 258 254 254 254
172 175 177 176 173 172 171 170 175 177 179 185 179 177 178 173 176 181 182 180 189 202 203 211 225 230 240 261 275 288 305 310 298 293 290 300 312 308 311 315 308 303 305 310 310 306 307 311 313 313 314 312 308 308 309 309 308 305 305 303 301 301 302 305 306 303 300 303 308 308 307 305 302 297 285 276 270 267 262 257 255 251 250 252 253
172 175 174 175 175 172 172 172 175 178 180 179 175 175 173 172 176 173 176 182 186 205 218 219 226 220 223 249 271 279 293 300 284 278 292 303 313 315 318 317 311 314 316 316 315 313 314 317 318 317 314 310 307 306 306 307 307 306 305 303 304 305 306 309 306 297 292 295 298 296 299 304 306 303 292 289 285 277 269 263 257 254 252 251 249
174 176 173 173 175 174 174 174 175 176 177 175 173 174 172 172 175 171 175 181 184 199 212 208 207 209 220 216 142 228 230 236 256 250 264 287 304 318 320 315 314 309 296 294 295 297 300 302 304 305 305 305 305 303 301 303 301 298 297 297 296 296 299 300 299 297 296 297 294 290 294 296 297 299 292 288 286 281 279 275 266 262 260 255 250
173 175 174 174 176 176 172 172 175 174 176 180 176 176 179 174 172 175 177 179 184 189 187 182 183 177 202 188 185 226 229 226 235 237 243 260 272 276 268 278 295 288 287 293 287 282 281 283 288 292 296 300 302 303 304 304 299 288 287 289 287 291 297 295 294 300 302 298 291 287 289 289 287 292 295 288 280 275 275 274 271 272 277 271 259
174 175 175 175 177 176 172 172 175 176 180 184 180 179 181 175 173 180 180 177 181 175 167 172 189 199 209 216 216 227 238 235 237 247 260 264 262 258 263 277 288 289 297 297 281 284 287 288 294 298 302 305 303 304 305 307 308 303 301 303 299 298 300 297 297 303 302 297 292 288 289 290 288 288 292 293 289 285 282 281 282 281 283 281 269
178 179 176 176 176 174 175 175 175 179 182 182 181 182 182 176 175 175 173 173 182 187 185 192 207 221 235 234 228 234 243 246 256 276 288 287 281 280 284 281 278 290 304 296 287 295 299 295 298 304 309 311 309 310 310 312 319 320 318 314 309 305 305 304 305 307 306 302 299 297 295 295 295 292 292 293 290 290 291 290 289 286 283 281 276
179 182 178 176 175 175 177 175 175 179 179 179 180 183 185 182 176 174 179 187 198 214 220 223 235 251 252 234 238 245 238 250 282 302 290 281 283 288 287 278 279 288 301 308 305 304 306 302 303 309 314 315 315 319 319 318 321 323 322 320 315 311 310 308 308 309 310 308 305 302 299 297 297 297 297 295 289 289 294 294 290 289 287 283 281
180 184 182 178 177 179 179 175 175 177 178 181 182 183 187 185 181 184 197 207 216 231 240 251 269 279 275 257 241 233 230 245 266 269 259 263 276 284 282 286 293 292 292 303 303 307 315 313 311 316 318 317 318 320 322 322 323 323 321 322 319 315 313 309 307 307 306 304 303 302 301 300 298 298 299 300 294 288 292 296 293 290 289 285 283
180 186 184 178 177 180 181 179 177 177 182 185 184 184 185 186 191 198 209 220 226 236 245 260 280 284 271 253 223 228 245 260 262 260 262 266 275 278 274 283 293 295 295 293 297 315 321 311 309 315 313 313 318 321 324 326 328 323 317 317 316 313 311 307 303 303 303 303 304 305 306 306 305 303 302 302 301 295 293 297 295 293 293 292 287
180 186 185 180 179 181 183 182 180 179 183 186 184 184 186 192 201 205 211 220 227 239 245 250 254 224 210 215 224 235 250 265 266 263 267 269 272 274 270 276 284 287 288 290 298 311 303 294 302 312 311 312 319 322 323 326 328 324 318 316 315 315 311 307 305 305 307 309 311 313 313 311 309 308 306 303 300 298 298 298 295 294 295 292 289
181 186 187 183 181 182 185 186 185 185 185 186 184 184 190 200 206 206 211 219 226 237 227 202 206 213 219 218 222 243 258 258 255 256 258 259 261 265 272 283 291 287 290 301 304 297 290 293 305 316 316 316 321 326 325 326 329 328 326 325 324 324 319 315 315 315 316 319 320 318 314 312 312 310 308 307 304 302 302 299 296 297 296 291 289
185 188 188 185 182 182 186 187 186 188 189 188 185 186 194 204 207 207 209 216 225 228 203 193 202 214 223 218 220 251 271 257 255 259 251 259 266 270 278 290 291 291 300 299 289 287 292 300 309 314 313 314 319 325 327 327 330 329 327 329 329 326 321 320 322 322 323 326 326 324 322 320 320 317 314 312 309 307 303 301 300 299 297 293 292
189 192 189 186 186 185 187 188 186 188 190 190 187 189 198 204 206 207 208 213 222 213 197 201 207 210 221 229 234 250 261 255 261 250 237 257 273 280 278 279 284 292 294 286 287 296 301 306 310 310 309 310 312 317 322 324 329 330 327 327 328 325 321 321 324 326 328 331 330 326 325 327 328 328 326 321 316 310 304 303 303 301 298 295 293
189 192 192 189 188 186 188 190 189 189 191 191 190 192 199 202 203 206 206 212 218 207 199 203 206 213 226 236 235 240 258 264 252 254 267 276 279 281 281 286 294 293 287 290 300 306 308 310 312 309 307 306 306 310 315 320 326 330 331 329 324 319 316 317 324 329 330 333 332 328 324 325 331 334 333 326 320 313 307 307 306 303 301 297 295
193 190 192 192 191 189 191 192 190 191 192 191 193 196 199 200 203 206 205 212 217 207 204 202 203 216 228 234 228 233 258 280 279 278 299 295 272 280 295 309 308 302 302 308 310 307 307 309 310 311 308 305 306 309 314 321 324 325 330 333 322 313 312 317 325 328 329 329 330 329 326 325 331 335 333 327 321 316 312 310 306 303 300 295 293
197 192 192 193 194 191 191 194 192 192 194 194 195 199 202 203 205 203 202 211 214 207 209 204 203 216 224 229 228 226 243 259 248 241 254 266 280 300 322 325 313 306 306 304 299 300 306 309 311 312 311 313 318 319 317 321 322 320 324 327 322 313 311 316 323 327 330 328 327 327 326 328 332 334 333 330 326 322 316 312 307 303 300 292 286
198 195 196 192 192 193 192 195 197 197 197 196 197 200 202 206 207 203 203 211 211 207 211 210 210 217 219 221 227 229 234 230 221 235 254 271 288 299 299 298 294 294 299 298 296 302 308 310 310 310 311 316 319 313 310 313 315 315 317 319 317 312 310 314 321 327 330 326 322 322 323 328 332 332 334 335 333 328 321 315 308 303 300 295 288
197 194 199 192 191 196 194 193 198 201 200 196 197 201 202 205 207 205 207 212 211 208 209 210 213 216 216 218 225 234 240 232 224 238 256 266 261 254 271 280 280 286 295 297 299 304 307 305 303 303 303 303 300 297 300 305 308 308 309 311 311 307 306 309 316 323 326 324 321 320 322 327 331 333 336 337 335 332 326 319 314 307 299 295 294
187 191 201 198 193 196 196 195 195 199 200 195 196 201 201 204 206 205 207 207 206 206 206 211 215 216 219 223 226 232 238 237 231 240 258 260 249 265 299 307 299 293 296 299 306 312 312 311 308 302 298 294 293 297 300 302 304 305 305 307 307 305 302 305 311 316 321 322 322 320 320 325 333 338 339 338 336 334 331 326 323 317 306 297 295
183 189 200 202 198 195 199 203 198 195 196 192 193 196 195 201 206 205 205 204 202 204 204 210 217 218 222 229 235 241 242 241 242 251 260 255 254 316 325 321 310 300 307 313 316 314 314 316 314 306 298 294 293 295 297 299 303 303 303 305 305 303 303 307 310 310 314 320 322 322 320 321 332 339 341 341 340 337 334 330 326 322 314 304 299
187 188 196 202 201 193 192 198 196 195 197 193 193 196 192 194 199 199 200 198 196 200 204 211 217 217 223 229 232 237 240 240 241 243 251 263 294 319 309 301 295 294 302 306 306 306 309 313 314 310 305 302 300 298 295 295 298 298 299 302 302 299 302 307 307 304 308 316 321 322 318 318 330 337 341 344 342 339 338 333 329 325 320 313 306
189 194 194 196 198 194 192 196 198 200 203 199 198 199 194 192 195 194 196 193 190 198 205 212 217 216 222 227 223 226 230 234 236 236 244 252 275 298 291 279 277 279 283 292 302 306 306 310 313 314 313 311 308 306 301 296 293 291 294 299 298 296 299 303 303 300 303 310 317 320 314 313 326 334 339 344 344 344 344 339 334 331 326 322 318
190 206 194 189 193 195 196 201 203 203 203 202 202 204 201 200 200 198 196 191 191 198 203 210 219 221 225 225 222 224 225 228 234 240 247 248 265 292 284 266 271 281 286 294 302 301 302 307 308 308 309 308 305 305 305 302 296 291 292 296 298 298 299 301 300 298 301 306 312 315 310 309 321 331 336 343 346 346 347 344 340 336 332 327 327
198 208 200 192 193 197 200 202 204 205 204 204 204 205 205 204 202 198 194 193 196 198 201 211 223 224 224 223 223 225 225 227 232 235 240 246 255 267 272 281 288 287 285 284 286 290 297 301 300 298 300 301 300 300 302 305 304 297 293 295 298 297 296 298 299 298 300 303 306 308 305 304 316 327 334 341 346 347 348 348 346 343 338 332 329
196 204 203 195 190 198 203 204 207 208 208 207 206 205 205 204 201 196 192 194 195 191 194 209 217 213 215 220 221 223 224 229 235 236 237 242 253 265 273 279 274 270 273 276 283 292 297 299 299 298 299 298 298 298 297 300 303 300 297 298 299 299 298 299 299 296 298 300 299 300 300 300 309 321 331 340 345 347 347 347 347 346 343 337 332
193 201 202 197 196 203 206 207 210 212 210 208 207 206 203 200 198 195 195 197 195 191 193 202 205 205 214 220 221 225 228 229 233 237 241 243 250 258 260 261 264 268 275 282 291 296 295 294 292 290 291 293 298 299 295 296 301 302 299 299 302 304 303 301 298 295 295 297 295 294 294 295 302 313 324 336 343 345 344 344 344 344 343 340 335
191 192 195 198 203 209 211 211 212 213 210 207 204 201 198 196 193 192 197 195 189 190 196 200 199 202 213 219 221 227 232 233 234 235 240 246 250 254 262 272 280 284 288 291 294 291 288 289 291 294 297 301 305 303 296 297 304 304 298 297 300 303 303 303 300 296 294 295 294 293 291 289 295 306 315 323 333 338 340 341 341 341 342 340 337
191 193 200 205 209 212 214 215 214 213 210 207 203 197 195 193 187 189 193 188 183 188 197 203 207 208 215 221 219 222 228 231 235 238 245 255 261 262 271 283 290 294 299 295 287 286 290 296 301 305 304 302 301 297 292 294 301 303 300 299 302 307 309 307 303 299 298 296 293 290 287 285 289 300 310 313 320 328 333 336 336 338 341 341 337
199 201 208 210 211 213 215 215 213 210 206 203 200 195 192 188 185 191 193 185 188 205 205 208 219 220 224 228 221 219 223 226 231 239 246 256 263 262 267 274 281 290 297 293 290 295 297 296 297 299 299 298 295 291 290 291 293 297 300 302 307 313 317 315 311 306 300 296 293 289 286 285 288 298 310 315 317 321 326 330 332 335 339 340 338
212 207 214 215 213 215 219 219 211 204 201 199 196 192 190 186 188 195 192 186 201 222 211 213 224 226 229 232 224 220 224 229 234 242 251 261 265 262 265 270 275 284 293 295 298 298 292 289 293 297 299 297 292 293 295 293 290 290 293 297 304 309 315 319 319 313 304 296 292 291 291 289 290 299 309 315 318 319 323 328 331 333 336 338 337
228 213 214 214 213 213 216 217 210 202 201 199 193 190 189 190 192 192 186 188 211 214 210 218 225 224 226 226 222 221 225 230 237 245 257 268 270 267 269 272 275 281 286 287 288 286 286 290 292 294 296 294 292 296 297 293 290 288 285 288 294 299 306 314 318 318 312 302 293 292 295 293 292 299 308 314 317 319 322 327 332 335 338 339 338
264 243 222 211 210 210 210 210 207 203 202 199 194 193 193 193 192 186 183 195 208 203 210 222 223 222 225 221 218 218 221 228 236 246 257 264 267 268 269 271 274 278 280 281 282 282 284 287 289 292 297 296 295 297 298 295 293 289 286 286 289 292 298 306 313 315 315 311 303 300 301 299 294 297 306 311 315 318 319 323 330 336 339 340 340
267 266 246 218 210 209 207 204 205 207 204 199 198 199 198 195 189 184 188 203 203 199 211 222 220 221 222 219 217 216 220 229 236 245 255 259 264 269 270 272 274 275 277 279 280 280 283 287 290 292 294 294 297 300 300 299 296 293 291 289 288 288 291 299 309 313 316 317 312 307 305 303 300 301 305 309 313 315 315 319 325 331 336 339 340
261 262 258 233 212 208 206 203 207 211 205 201 205 206 201 192 183 184 196 203 200 202 213 217 219 221 217 215 215 215 221 231 235 242 253 258 263 269 271 273 274 272 274 276 275 277 282 284 286 290 291 293 297 299 296 297 297 295 291 286 284 284 286 293 305 313 319 321 314 308 306 306 308 312 311 311 313 313 315 319 321 324 333 338 338
254 252 254 243 220 212 211 206 205 206 202 203 207 202 192 180 173 189 204 199 199 207 212 212 215 217 215 213 213 215 224 233 235 241 250 256 262 266 269 272 271 268 271 276 274 275 279 279 281 288 288 287 291 293 294 300 302 299 294 289 286 285 285 290 300 308 318 322 318 315 315 314 317 319 315 313 314 313 317 321 321 325 335 338 338
258 249 250 247 224 213 215 212 206 202 199 201 200 189 183 184 190 205 205 197 200 207 207 209 213 214 213 213 213 218 227 234 239 246 251 254 257 261 268 274 272 267 270 275 274 275 278 276 280 288 286 281 284 287 292 299 301 300 300 296 291 289 287 288 294 303 312 317 317 321 326 326 325 322 317 317 317 316 319 321 322 331 340 340 339
262 252 245 235 218 212 216 213 204 198 194 195 193 186 187 195 195 195 196 199 205 208 208 211 213 212 213 214 218 224 227 231 241 247 248 252 257 263 269 272 274 274 273 273 273 276 277 276 282 291 289 279 280 285 292 298 298 299 303 300 291 288 286 287 292 301 309 315 318 325 330 327 323 320 319 320 321 321 322 322 326 337 343 341 342
256 256 241 222 213 213 213 205 198 193 188 184 179 176 185 195 184 187 197 203 207 210 211 215 216 216 218 218 221 229 230 231 239 243 246 253 260 265 264 266 276 280 274 272 275 277 277 277 283 290 287 280 279 284 288 288 287 295 304 303 292 285 283 287 293 299 306 313 318 322 324 321 318 317 318 321 323 323 322 321 330 343 346 345 345
276 264 237 217 208 205 207 203 194 188 186 183 176 177 197 213 194 194 204 207 209 213 216 219 221 223 227 224 225 232 235 234 238 244 249 250 248 249 252 260 274 276 270 273 278 278 280 282 282 284 284 280 276 276 280 280 284 296 305 304 296 290 288 291 293 295 302 310 312 315 318 320 319 318 320 322 323 323 321 320 326 341 348 348 346
270 258 230 214 205 199 199 196 187 181 179 180 184 196 214 209 199 201 208 210 214 220 222 226 230 230 234 235 233 234 237 239 243 245 245 244 247 251 257 266 272 269 271 279 282 283 286 287 285 286 290 293 292 287 286 287 291 298 303 301 298 297 296 294 294 295 301 306 308 311 315 319 321 320 322 323 322 321 322 320 321 332 344 346 345
251 239 219 205 192 181 177 175 177 182 179 177 188 208 207 201 203 209 212 213 219 225 231 241 243 241 244 243 238 235 237 241 244 240 238 246 254 257 262 271 273 270 276 288 291 289 287 286 289 294 296 300 304 301 294 295 299 301 302 301 298 299 301 301 301 301 303 304 306 309 314 317 320 321 322 322 321 320 321 321 320 326 336 341 343
235 212 202 195 178 161 151 156 176 192 192 188 200 207 204 205 210 214 217 221 225 231 242 251 253 255 255 247 239 236 239 243 243 239 240 249 257 259 262 268 271 276 286 295 297 294 289 286 291 299 302 305 309 304 293 296 303 303 301 300 296 298 304 307 306 304 304 304 305 306 311 315 317 320 322 321 320 319 319 322 323 323 328 332 338
189 185 190 185 170 159 153 162 193 201 195 191 198 201 201 206 214 218 224 228 226 227 236 247 259 267 263 255 246 241 241 242 239 236 240 252 269 282 285 276 273 281 289 293 293 293 293 293 295 301 308 311 311 304 291 289 297 301 303 303 302 305 307 306 304 303 303 303 302 303 310 315 316 320 322 320 320 321 322 325 325 319 322 328 335
184 192 186 169 160 160 160 163 179 187 192 199 205 210 213 220 229 232 236 244 252 250 246 248 259 268 268 257 242 233 233 235 232 232 245 265 282 293 293 282 278 283 289 293 293 292 292 294 298 304 310 312 311 304 291 286 295 304 305 305 308 310 307 301 299 300 300 300 301 304 311 316 316 319 321 319 322 326 326 330 330 325 329 335 339
185 196 182 163 154 158 162 164 164 169 178 185 191 200 211 233 258 265 268 273 274 272 269 268 268 269 265 250 237 233 236 237 238 244 258 271 278 280 283 284 284 289 293 295 297 295 292 295 301 305 307 310 311 304 291 291 303 308 307 307 310 309 304 298 295 296 296 297 301 308 315 317 315 317 319 319 323 326 328 333 338 338 344 348 344
194 205 188 166 159 166 176 184 178 170 164 143 133 254 297 309 308 302 296 291 284 282 287 281 261 252 249 243 239 242 239 235 241 267 276 272 271 274 280 285 283 285 289 290 292 294 295 301 307 307 307 308 305 297 296 302 308 309 308 312 316 315 311 306 300 296 295 296 303 313 321 320 312 313 319 321 324 328 330 335 344 351 357 359 353
181 194 189 175 173 176 180 189 198 208 222 236 261 277 283 296 307 306 298 294 297 302 298 263 235 236 237 230 222 222 224 226 238 267 271 272 269 261 264 273 276 281 287 291 294 295 296 300 303 304 308 310 300 295 300 305 308 309 313 321 325 324 321 316 309 303 300 303 312 321 321 314 312 316 321 323 327 333 338 342 352 2 5 4 1
164 179 184 180 176 174 174 184 205 225 231 228 236 253 280 331 337 324 298 279 284 285 251 220 221 232 228 214 207 211 225 240 253 264 273 279 276 267 272 279 283 287 292 295 297 297 297 298 296 295 300 304 298 298 303 305 308 313 320 327 330 330 328 325 319 315 312 314 320 315 302 305 314 320 322 327 333 341 349 355 3 11 14 10 5
152 155 159 160 160 161 161 163 167 181 195 201 229 252 264 335 324 294 256 221 231 225 223 228 233 233 229 224 224 233 239 246 260 275 282 281 279 279 281 283 285 287 290 295 299 300 298 295 293 294 299 300 298 301 304 305 307 314 324 331 333 332 331 327 324 324 321 316 316 312 308 313 323 330 335 344 352 355 359 5 11 18 20 15 9
138 136 136 136 138 147 158 162 165 173 171 152 142 172 162 140 266 275 267 252 240 222 218 228 236 238 243 244 242 245 250 257 264 267 268 272 278 281 282 286 290 292 294 299 304 304 303 301 300 301 301 300 298 299 300 301 306 318 329 334 334 335 334 330 328 327 324 320 321 325 329 335 346 356 4 11 15 13 12 13 17 24 26 21 14